When you browse on this site, cookies collect data to enhance your experience and personalize the content and advertising you see.
Visit our Privacy Policy to learn more. By continuing to use the site, you agree to this use of cookies and data.
  • En España
  • Lista de países
  • Para 7 días
  • Temperatura del agua
  • El tiempo en el mapa
  • Informadores
  • user-avatar
    Iniciar sesión

    Tiempo cada hora Florianópolis

    Hoy, 17 Febrero, Lunes

    Tiempo Temperatura Precipitaciones Viento Presión Humedad
    00:00 +25°C° 0.1 mm 2 mps 759 mmHg 92%
    01:00 +25°C° 0 mm 2 mps 759 mmHg 93%
    02:00 +25°C° 0 mm 2 mps 759 mmHg 93%
    03:00 +25°C° 0 mm 2 mps 759 mmHg 93%
    04:00 +25°C° 0 mm 2 mps 759 mmHg 93%
    05:00 +25°C° 0 mm 1 mps 759 mmHg 93%
    06:00 +24°C° 0 mm 1 mps 759 mmHg 93%
    07:00 +26°C° 0 mm 1 mps 759 mmHg 85%
    08:00 +28°C° 0 mm 2 mps 760 mmHg 78%
    09:00 +30°C° 0 mm 2 mps 760 mmHg 70%
    10:00 +31°C° 0 mm 2 mps 760 mmHg 63%
    11:00 +34°C° 0 mm 3 mps 759 mmHg 56%
    12:00 +35°C° 0 mm 3 mps 759 mmHg 49%
    13:00 +35°C° 0 mm 4 mps 758 mmHg 51%
    14:00 +35°C° 0 mm 4 mps 758 mmHg 54%
    15:00 +34°C° 0 mm 4 mps 757 mmHg 56%
    16:00 +33°C° 0 mm 4 mps 757 mmHg 63%
    17:00 +32°C° 0 mm 4 mps 757 mmHg 69%
    18:00 +29°C° 0 mm 3 mps 757 mmHg 75%
    19:00 +28°C° 0 mm 3 mps 758 mmHg 81%
    20:00 +28°C° 0 mm 3 mps 758 mmHg 86%
    21:00 +27°C° 0 mm 2 mps 759 mmHg 91%
    22:00 +26°C° 0 mm 2 mps 759 mmHg 92%
    23:00 +26°C° 0 mm 3 mps 759 mmHg 93%

    Mañana, 18 Febrero, Martes

    Tiempo Temperatura Precipitaciones Viento Presión Humedad
    00:00 +26°C° 0 mm 3 mps 759 mmHg 93%
    01:00 +26°C° 0 mm 3 mps 758 mmHg 93%
    02:00 +26°C° 0 mm 3 mps 758 mmHg 93%
    03:00 +25°C° 0 mm 3 mps 757 mmHg 93%
    04:00 +25°C° 0 mm 3 mps 757 mmHg 93%
    05:00 +25°C° 0 mm 3 mps 758 mmHg 92%
    06:00 +25°C° 0 mm 3 mps 758 mmHg 92%
    07:00 +27°C° 0 mm 3 mps 758 mmHg 84%
    08:00 +28°C° 0 mm 3 mps 758 mmHg 76%
    09:00 +30°C° 0 mm 3 mps 758 mmHg 68%
    10:00 +33°C° 0 mm 4 mps 757 mmHg 62%
    11:00 +35°C° 0 mm 5 mps 757 mmHg 56%
    12:00 +36°C° 0 mm 5 mps 757 mmHg 49%
    13:00 +37°C° 0 mm 5 mps 756 mmHg 49%
    14:00 +37°C° 0 mm 5 mps 755 mmHg 49%
    15:00 +39°C° 0 mm 5 mps 755 mmHg 49%
    16:00 +35°C° 0.8 mm 4 mps 755 mmHg 62%
    17:00 +31°C° 0.8 mm 2 mps 755 mmHg 76%
    18:00 +29°C° 0.8 mm 1 mps 756 mmHg 90%
    19:00 +28°C° 0.2 mm 1 mps 756 mmHg 91%
    20:00 +28°C° 0.2 mm 1 mps 757 mmHg 91%
    21:00 +28°C° 0.2 mm 1 mps 757 mmHg 92%
    22:00 +27°C° 0.1 mm 1 mps 757 mmHg 92%
    23:00 +27°C° 0.1 mm 1 mps 757 mmHg 91%

    Pasado mañana, 19 Febrero, Miércoles

    Tiempo Temperatura Precipitaciones Viento Presión Humedad
    00:00 +27°C° 0.1 mm 1 mps 757 mmHg 91%
    01:00 +27°C° 0.1 mm 2 mps 757 mmHg 91%
    02:00 +27°C° 0.1 mm 2 mps 757 mmHg 91%
    03:00 +27°C° 0.1 mm 2 mps 756 mmHg 91%
    04:00 +27°C° 0 mm 2 mps 756 mmHg 91%
    05:00 +26°C° 0 mm 2 mps 756 mmHg 90%
    06:00 +26°C° 0 mm 2 mps 757 mmHg 90%
    07:00 +27°C° 0.5 mm 2 mps 757 mmHg 86%
    08:00 +28°C° 0.5 mm 2 mps 757 mmHg 82%
    09:00 +29°C° 0.5 mm 2 mps 757 mmHg 78%
    10:00 +30°C° 0.2 mm 2 mps 757 mmHg 74%
    11:00 +30°C° 0.2 mm 3 mps 757 mmHg 70%
    12:00 +31°C° 0.2 mm 3 mps 757 mmHg 66%
    13:00 +30°C° 0 mm 3 mps 756 mmHg 69%
    14:00 +30°C° 0 mm 3 mps 756 mmHg 71%
    15:00 +29°C° 0 mm 3 mps 756 mmHg 73%
    16:00 +29°C° 0 mm 3 mps 756 mmHg 76%
    17:00 +28°C° 0 mm 2 mps 756 mmHg 79%
    18:00 +28°C° 0 mm 2 mps 756 mmHg 81%
    19:00 +27°C° 0 mm 2 mps 756 mmHg 84%
    20:00 +27°C° 0 mm 1 mps 756 mmHg 87%
    21:00 +26°C° 0 mm 1 mps 757 mmHg 90%
    22:00 +26°C° 0 mm 1 mps 757 mmHg 90%
    23:00 +26°C° 0 mm 1 mps 757 mmHg 90%

    20 Febrero, Jueves

    Tiempo Temperatura Precipitaciones Viento Presión Humedad
    00:00 +24°C° 0 mm 0 mps 757 mmHg 91%
    01:00 +24°C° 0 mm 0 mps 756 mmHg 90%
    02:00 +24°C° 0 mm 0 mps 756 mmHg 90%
    03:00 +24°C° 0 mm 0 mps 755 mmHg 90%
    04:00 +23°C° 0 mm 0 mps 755 mmHg 90%
    05:00 +23°C° 0 mm 0 mps 756 mmHg 91%
    06:00 +23°C° 0 mm 0 mps 756 mmHg 91%
    07:00 +25°C° 0 mm 0 mps 756 mmHg 83%
    08:00 +27°C° 0 mm 0 mps 756 mmHg 75%
    09:00 +29°C° 0 mm 0 mps 756 mmHg 68%
    10:00 +31°C° 0 mm 1 mps 756 mmHg 66%
    11:00 +32°C° 0 mm 1 mps 756 mmHg 65%
    12:00 +32°C° 0 mm 2 mps 756 mmHg 63%
    13:00 +32°C° 0.5 mm 2 mps 755 mmHg 66%
    14:00 +32°C° 0.5 mm 2 mps 755 mmHg 68%
    15:00 +33°C° 0.5 mm 3 mps 755 mmHg 71%
    16:00 +30°C° 0.9 mm 3 mps 755 mmHg 77%
    17:00 +29°C° 0.9 mm 3 mps 755 mmHg 84%
    18:00 +28°C° 0.9 mm 3 mps 755 mmHg 90%
    19:00 +27°C° 0.5 mm 3 mps 756 mmHg 92%
    20:00 +27°C° 0.5 mm 3 mps 756 mmHg 93%
    21:00 +26°C° 0.5 mm 3 mps 757 mmHg 94%
    22:00 +26°C° 0.4 mm 4 mps 757 mmHg 93%
    23:00 +26°C° 0.4 mm 4 mps 757 mmHg 92%

    21 Febrero, Viernes

    Tiempo Temperatura Precipitaciones Viento Presión Humedad
    00:00 +25°C° 0.4 mm 5 mps 757 mmHg 92%
    01:00 +25°C° 0.3 mm 5 mps 757 mmHg 91%
    02:00 +23°C° 0.3 mm 5 mps 757 mmHg 90%
    03:00 +23°C° 0.3 mm 5 mps 757 mmHg 89%
    10:00 +22°C° 0.2 mm 5 mps 759 mmHg 91%
    11:00 +22°C° 0.2 mm 5 mps 759 mmHg 90%
    12:00 +22°C° 0.2 mm 5 mps 759 mmHg 90%
    13:00 +22°C° 0.1 mm 5 mps 759 mmHg 87%
    14:00 +22°C° 0.1 mm 5 mps 759 mmHg 85%
    15:00 +22°C° 0.1 mm 5 mps 758 mmHg 82%
    16:00 +22°C° 0 mm 6 mps 758 mmHg 79%
    17:00 +22°C° 0 mm 6 mps 759 mmHg 76%
    18:00 +22°C° 0 mm 6 mps 759 mmHg 73%
    19:00 +22°C° 0 mm 6 mps 759 mmHg 73%
    20:00 +21°C° 0 mm 5 mps 760 mmHg 73%
    21:00 +21°C° 0 mm 5 mps 760 mmHg 72%
    22:00 +21°C° 0 mm 5 mps 761 mmHg 73%
    23:00 +21°C° 0 mm 5 mps 761 mmHg 74%

    22 Febrero, Sábado

    Tiempo Temperatura Precipitaciones Viento Presión Humedad
    00:00 +20°C° 0 mm 5 mps 761 mmHg 74%
    01:00 +20°C° 0 mm 5 mps 761 mmHg 76%
    02:00 +19°C° 0 mm 4 mps 760 mmHg 77%
    03:00 +19°C° 0 mm 4 mps 760 mmHg 79%
    04:00 +18°C° 0 mm 3 mps 761 mmHg 77%
    05:00 +18°C° 0 mm 3 mps 761 mmHg 76%
    06:00 +18°C° 0 mm 2 mps 761 mmHg 74%
    07:00 +20°C° 0 mm 2 mps 761 mmHg 66%
    08:00 +23°C° 0 mm 2 mps 762 mmHg 58%
    09:00 +25°C° 0 mm 2 mps 762 mmHg 49%
    10:00 +26°C° 0 mm 3 mps 762 mmHg 49%
    11:00 +27°C° 0 mm 3 mps 762 mmHg 48%
    12:00 +28°C° 0 mm 4 mps 762 mmHg 47%
    13:00 +27°C° 0 mm 5 mps 762 mmHg 53%
    14:00 +27°C° 0 mm 5 mps 761 mmHg 59%
    15:00 +26°C° 0 mm 6 mps 761 mmHg 64%
    16:00 +25°C° 0 mm 5 mps 761 mmHg 66%
    17:00 +25°C° 0 mm 5 mps 761 mmHg 68%
    18:00 +23°C° 0 mm 5 mps 761 mmHg 70%
    19:00 +22°C° 0 mm 4 mps 762 mmHg 73%
    20:00 +21°C° 0 mm 4 mps 762 mmHg 76%
    21:00 +20°C° 0 mm 3 mps 763 mmHg 79%
    22:00 +20°C° 0.1 mm 3 mps 763 mmHg 79%
    23:00 +20°C° 0.1 mm 3 mps 763 mmHg 79%
    Mostrar más